This is the latest recevied weather packets stored in our database for station/object KC2G. If no packets are shown the sender has not sent any weather packets the latest 10 day(s).
| Time | Temp. | Humidity | Pressure | Rain* | Wind** | Luminosity | Snow |
|---|---|---|---|---|---|---|---|
| 1777734955 | 12.22° C | 64% | 1011.9 hPa | 0 mm | 0.89 m/s, 353° | - | - |
| 1777734054 | 12.22° C | 65% | 1012 hPa | 0 mm | 0.45 m/s, 354° | - | - |
| 1777733154 | 12.22° C | 66% | 1012.1 hPa | 0 mm | 0.45 m/s, 319° | - | - |
| 1777732256 | 11.67° C | 73% | 1012.3 hPa | 0 mm | 0.45 m/s, 75° | - | - |
| 1777731355 | 11.67° C | 74% | 1012.3 hPa | 0 mm | 0.45 m/s, 81° | - | - |
| 1777730455 | 11.11° C | 79% | 1012.4 hPa | 0 mm | 0.45 m/s, 265° | - | - |
| 1777729555 | 11.11° C | 78% | 1012.4 hPa | 0 mm | 0.45 m/s, 240° | - | - |
| 1777728694 | 11.11° C | 77% | 1012.3 hPa | 0 mm | 0.45 m/s, 1° | - | - |
| 1777728655 | 11.11° C | 77% | 1012.3 hPa | 0 mm | 0.45 m/s, 1° | - | - |
| 1777727810 | 11.11° C | 80% | 1012.6 hPa | 0 mm | 0.45 m/s, 293° | - | - |
| 1777727755 | 11.11° C | 80% | 1012.6 hPa | 0 mm | 0.45 m/s, 293° | - | - |
| 1777726854 | 10.56° C | 84% | 1012.6 hPa | 0 mm | 0 m/s | - | - |
| 1777725955 | 10.56° C | 85% | 1012.5 hPa | 0 mm | 0.45 m/s, 313° | - | - |
| 1777725055 | 10.56° C | 86% | 1012.4 hPa | 0 mm | 0.45 m/s, 294° | - | - |
| 1777724154 | 10.56° C | 87% | 1012.3 hPa | 0 mm | 0.45 m/s, 250° | - | - |
| 1777721455 | 9.44° C | 98% | 1012.6 hPa | 0 mm | 0 m/s | - | - |
| 1777720554 | 8.89° C | 99% | 1012.4 hPa | 0 mm | 0 m/s | - | - |
| 1777719655 | 8.33° C | 99% | 1012.1 hPa | 0 mm | 0 m/s | - | - |
| 1777718754 | 7.78° C | 99% | 1012 hPa | 0 mm | 0 m/s | - | - |
| 1777717855 | 8.33° C | 99% | 1011.9 hPa | 0 mm | 0 m/s | - | - |
| 1777716955 | 8.33° C | 99% | 1011.9 hPa | 0 mm | 0 m/s | - | - |
| 1777716055 | 8.33° C | 99% | 1011.7 hPa | 0 mm | 0 m/s | - | - |
| 1777714256 | 8.89° C | 100% | 1011.7 hPa | 0 mm | 0 m/s | - | - |
| 1777713355 | 8.89° C | 98% | 1011.9 hPa | 0 mm | 0 m/s | - | - |
| 1777712457 | 9.44° C | 97% | 1011.8 hPa | 0 mm | 0 m/s | - | - |
* Rain latest hour (hover to see other rain measurements)
** Current wind speed in m/s (hover to see current wind gust speed)